K3IR Weather Reports


time (UTC)temp
C
wind
direction
speed
KPH
gust
KPH
rain 1hr
cm
rain 24hr
cm
rain mn
cm
humidity
%
barometer
mb
20260504081542 7 0.0 0.0 0.00 0.00 0.00 64 1014.4
20260504044543 9 0.0 0.0 0.00 0.00 0.00 58 1014.5
20260504043036 8 0.0 0.0 0.00 0.00 0.00 58 1014.4
20260504041541 8 0.0 0.0 0.00 0.00 0.00 59 1014.4
20260504040100 8 0.0 0.0 0.00 0.00 0.00 60 1014.2
20260504034606 8 0.0 0.0 0.00 0.00 0.00 60 1014.4
20260504033040 8 0.0 0.0 0.00 0.00 0.00 59 1014.2
20260504031540 8 0.0 0.0 0.00 0.00 0.00 58 1014.1
20260504030042 9 0.0 0.0 0.00 0.00 0.00 56 1014.1
20260504024536 9 0.0 0.0 0.00 0.00 0.00 56 1014.0
20260504023043 9 0.0 0.0 0.00 0.00 0.00 56 1014.1
20260504021544 9 0.0 0.0 0.00 0.00 0.00 55 1014.2
20260504020041 9 0.0 0.0 0.00 0.00 0.00 54 1014.2
20260504014536 10 0.0 0.0 0.00 0.00 0.00 53 1014.0
20260504013046 10 0.0 0.0 0.00 0.00 0.00 51 1014.0
20260504011544 11 0.0 0.0 0.00 0.00 0.00 49 1013.7
20260504010042 11 0.0 0.0 0.00 0.00 0.00 47 1013.8
20260504004540 12 0.0 0.0 0.00 0.00 0.00 47 1013.7
20260504003040 12 0.0 0.0 0.00 0.00 0.00 45 1013.6
20260504001535 12 0.0 0.0 0.00 0.00 0.00 44 1013.3
20260504000044 13 0.0 0.0 0.00 0.00 0.00 43 1013.3
20260503234543 13 0.0 0.0 0.00 0.00 0.00 42 1013.1
20260503233041 13 0.0 0.0 0.00 0.00 0.00 42 1013.0
20260503231540 14 0.0 0.0 0.00 0.00 0.00 40 1013.0
20260503230041 14 0.0 0.0 0.00 0.00 0.00 42 1013.0
20260503224536 14 0.0 0.0 0.00 0.00 0.00 39 1012.9
20260503223043 14 0.0 0.0 0.00 0.00 0.00 39 1012.9
20260503221545 14 0.0 0.0 0.00 0.00 0.00 39 1012.9
20260503220043 15 0.0 0.0 0.00 0.00 0.00 39 1013.0
20260503214541 15 0.0 0.0 0.00 0.00 0.00 40 1012.9
20260503213045 14 0.0 0.0 0.00 0.00 0.00 42 1012.7
20260503211545 14 0.0 0.0 0.00 0.00 0.00 42 1012.7
20260503210036 15 0.0 0.0 0.00 0.00 0.00 39 1012.7
20260503204552 14 0.0 0.0 0.00 0.00 0.00 40 1012.8
20260503203047 13 0.0 0.0 0.00 0.00 0.00 41 1012.5
20260503201542 14 0.0 0.0 0.00 0.00 0.00 39 1012.9
20260503200042 13 0.0 0.0 0.00 0.00 0.00 41 1013.2
20260503194545 13 0.0 0.0 0.00 0.00 0.00 42 1013.4
20260503193052 13 0.0 0.0 0.00 0.00 0.00 41 1013.5
20260503191534 13 0.0 0.0 0.00 0.00 0.00 42 1013.8
20260503190053 13 0.0 0.0 0.00 0.00 0.00 44 1013.9
20260503184541 13 0.0 0.0 0.00 0.00 0.00 46 1013.9
20260503183055 12 0.0 0.0 0.00 0.00 0.00 41 1014.0
20260503181540 11 0.0 0.0 0.00 0.00 0.00 45 1014.2
20260503180049 12 0.0 0.0 0.00 0.00 0.00 46 1014.2
20260503174542 12 0.0 0.0 0.00 0.00 0.00 47 1014.3
20260503173103 12 0.0 0.0 0.00 0.00 0.00 45 1014.2
20260503171549 11 0.0 0.0 0.00 0.00 0.00 50 1014.4